,,,PA_Meas_PMT16A,,PR_Meas_QMR101_102,,RH_Meas_QMH101,,SR_Meas_QMS101,,TA_Meas_QMH101,,GenWind,,GenWind,
date,time,status,PA,status,PR,status,RH,status,SR,status,TA,status,DirAvg,status,SpdAvg,
2009-06-04, 00:00:05,VALID,1000.85,VALID,0,VALID,90.0371,VALID,0,VALID,24.8917,VALID,21,VALID,0.0121094,
2009-06-04, 00:01:05,VALID,1000.82,VALID,0,VALID,90.3042,VALID,0,VALID,24.8917,VALID,21,VALID,0.0785156,
2009-06-04, 00:02:05,VALID,1000.81,VALID,0,VALID,90.4491,VALID,0,VALID,24.8722,VALID,21,VALID,0.341797,
2009-06-04, 00:03:05,VALID,1000.8,VALID,0,VALID,90.5407,VALID,0,VALID,24.8722,VALID,21,VALID,0.183984,
2009-06-04, 00:04:05,VALID,1000.77,VALID,0,VALID,90.5712,VALID,0,VALID,24.8722,VALID,21,VALID,0,
2009-06-04, 00:05:05,VALID,1000.78,VALID,0,VALID,90.617,VALID,0,VALID,24.8527,VALID,21,VALID,0,
2009-06-04, 00:06:05,VALID,1000.77,VALID,0,VALID,90.6399,VALID,0,VALID,24.8741,VALID,21,VALID,0.0046875,
2009-06-04, 00:07:05,VALID,1000.77,VALID,0,VALID,90.6704,VALID,0,VALID,24.8722,VALID,21,VALID,0.387109,
2009-06-04, 00:08:05,VALID,1000.81,VALID,0,VALID,90.823,VALID,0,VALID,24.8722,VALID,21,VALID,0.39375,
2009-06-04, 00:09:05,VALID,1000.77,VALID,0,VALID,90.9985,VALID,0,VALID,24.8722,VALID,21,VALID,0.446094,
2009-06-04, 00:10:05,VALID,1000.78,VALID,0,VALID,91.2426,VALID,0,VALID,24.8917,VALID,30,VALID,0.725781,
2009-06-04, 00:11:05,VALID,1000.75,VALID,0,VALID,91.1892,VALID,0,VALID,24.9112,VALID,51,VALID,0.898438,
2009-06-04, 00:12:05,VALID,1000.77,VALID,0,VALID,91.235,VALID,0,VALID,24.9308,VALID,66,VALID,0.956641,
2009-06-04, 00:13:05,VALID,1000.73,VALID,0,VALID,91.1587,VALID,0,VALID,24.9503,VALID,66,VALID,0.796484,
2009-06-04, 00:14:05,VALID,1000.73,VALID,0,VALID,91.0214,VALID,0,VALID,24.9717,VALID,66,VALID,0.59375,
2009-06-04, 00:15:05,VALID,1000.73,VALID,0,VALID,90.9756,VALID,0,VALID,24.9717,VALID,66,VALID,0.289453,
2009-06-04, 00:16:05,VALID,1000.7,VALID,0,VALID,90.968,VALID,0,VALID,24.9503,VALID,66,VALID,0.284766,
2009-06-04, 00:17:05,VALID,1000.7,VALID,0,VALID,90.9222,VALID,0,VALID,24.9503,VALID,57,VALID,0.524219,
2009-06-04, 00:18:05,VALID,1000.67,VALID,0,VALID,90.9756,VALID,0,VALID,24.9308,VALID,57,VALID,0.260547,
2009-06-04, 00:19:05,VALID,1000.66,VALID,0,VALID,91.0824,VALID,0,VALID,24.9112,VALID,57,VALID,0.214844,
2009-06-04, 00:20:05,VALID,1000.67,VALID,0,VALID,91.1358,VALID,0,VALID,24.9326,VALID,57,VALID,0.207422,
2009-06-04, 00:21:05,VALID,1000.66,VALID,0,VALID,91.1511,VALID,0,VALID,24.8917,VALID,57,VALID,0.0304688,
2009-06-04, 00:22:05,VALID,1000.65,VALID,0,VALID,91.1434,VALID,0,VALID,24.8936,VALID,57,VALID,0.00351562,
2009-06-04, 00:23:05,VALID,1000.61,VALID,0,VALID,91.235,VALID,0,VALID,24.8936,VALID,57,VALID,0.0515625,
2009-06-04, 00:24:05,VALID,1000.62,VALID,0,VALID,91.2579,VALID,0,VALID,24.8527,VALID,57,VALID,0,
2009-06-04, 00:25:05,VALID,1000.57,VALID,0,VALID,91.3647,VALID,0,VALID,24.8546,VALID,57,VALID,0.430859,
2009-06-04, 00:26:05,VALID,1000.57,VALID,0,VALID,91.4334,VALID,0,VALID,24.8546,VALID,57,VALID,0.272266,
2009-06-04, 00:27:05,VALID,1000.55,VALID,0,VALID,91.5478,VALID,0,VALID,24.8332,VALID,302,VALID,0.739844,
2009-06-04, 00:28:05,VALID,1000.52,VALID,0,VALID,91.3647,VALID,0,VALID,24.8527,VALID,308,VALID,0.875391,
2009-06-04, 00:29:05,VALID,1000.52,VALID,0,VALID,91.235,VALID,0,VALID,24.9131,VALID,300,VALID,0.222656,
2009-06-04, 00:30:05,VALID,1000.51,VALID,0,VALID,90.8917,VALID,0,VALID,24.8722,VALID,354,VALID,0.313281,
2009-06-04, 00:31:05,VALID,1000.53,VALID,0,VALID,90.968,VALID,0,VALID,24.8722,VALID,106,VALID,0.620313,
2009-06-04, 00:32:05,VALID,1000.53,VALID,0,VALID,90.8764,VALID,0,VALID,24.8527,VALID,106,VALID,0.25625,
2009-06-04, 00:33:05,VALID,1000.5,VALID,0,VALID,90.617,VALID,0,VALID,24.8136,VALID,104,VALID,0.430469,
2009-06-04, 00:34:05,VALID,1000.48,VALID,0,VALID,90.762,VALID,0,VALID,24.8722,VALID,52,VALID,0.911328,
2009-06-04, 00:35:05,VALID,1000.46,VALID,0,VALID,90.9603,VALID,0,VALID,24.8527,VALID,40,VALID,1.11055,
2009-06-04, 00:36:05,VALID,1000.46,VALID,0,VALID,90.5788,VALID,0,VALID,24.8936,VALID,17,VALID,0.448438,
2009-06-04, 00:37:05,VALID,1000.48,VALID,0,VALID,90.6704,VALID,0,VALID,24.8741,VALID,22,VALID,0.5875,
2009-06-04, 00:38:05,VALID,1000.51,VALID,0,VALID,90.9298,VALID,0,VALID,24.8332,VALID,81,VALID,0.894141,
2009-06-04, 00:39:05,VALID,1000.49,VALID,0,VALID,90.9374,VALID,0,VALID,24.8546,VALID,79,VALID,0.734375,
2009-06-04, 00:40:05,VALID,1000.5,VALID,0,VALID,91.0214,VALID,0,VALID,24.8527,VALID,79,VALID,0.316797,
2009-06-04, 00:41:05,VALID,1000.48,VALID,0,VALID,91.0671,VALID,0,VALID,24.8332,VALID,79,VALID,0.0867188,
2009-06-04, 00:42:05,VALID,1000.5,VALID,0,VALID,91.2045,VALID,0,VALID,24.8332,VALID,79,VALID,0.158203,
2009-06-04, 00:43:05,VALID,1000.46,VALID,0,VALID,91.3266,VALID,0,VALID,24.8136,VALID,79,VALID,0.202734,
2009-06-04, 00:44:05,VALID,1000.45,VALID,0,VALID,91.4028,VALID,0,VALID,24.7941,VALID,4,VALID,0.931641,
2009-06-04, 00:45:05,VALID,1000.46,VALID,0,VALID,91.4105,VALID,0,VALID,24.8136,VALID,349,VALID,0.848047,
2009-06-04, 00:46:05,VALID,1000.41,VALID,0,VALID,90.7925,VALID,0,VALID,24.8332,VALID,349,VALID,0.246094,
2009-06-04, 00:47:05,VALID,1000.42,VALID,0,VALID,91.0595,VALID,0,VALID,24.8741,VALID,314,VALID,0.635156,
2009-06-04, 00:48:05,VALID,1000.44,VALID,0,VALID,91.0443,VALID,0,VALID,24.8722,VALID,314,VALID,0.195703,
2009-06-04, 00:49:05,VALID,1000.41,VALID,0,VALID,90.9909,VALID,0,VALID,24.8527,VALID,330,VALID,0.583984,
2009-06-04, 00:50:05,VALID,1000.43,VALID,0,VALID,90.6551,VALID,0,VALID,24.8332,VALID,6,VALID,0.758984,
2009-06-04, 00:51:05,VALID,1000.43,VALID,0,VALID,90.6323,VALID,0,VALID,24.8332,VALID,6,VALID,1.17383,
2009-06-04, 00:52:05,VALID,1000.42,VALID,0,VALID,90.6094,VALID,0,VALID,24.8136,VALID,355,VALID,0.9375,
2009-06-04, 00:53:05,VALID,1000.51,VALID,0,VALID,90.6933,VALID,0,VALID,24.835,VALID,353,VALID,0.314844,
2009-06-04, 00:54:05,VALID,1000.48,VALID,0,VALID,90.6475,VALID,0,VALID,24.7941,VALID,3,VALID,0.496094,
2009-06-04, 00:55:05,VALID,1000.48,VALID,0,VALID,90.0524,VALID,0,VALID,24.796,VALID,37,VALID,0.905078,
2009-06-04, 00:56:05,VALID,1000.42,VALID,0,VALID,89.7854,VALID,0,VALID,24.7746,VALID,52,VALID,2.38594,
2009-06-04, 00:57:05,VALID,1000.42,VALID,0,VALID,89.854,VALID,0,VALID,24.7941,VALID,28,VALID,1.44727,
2009-06-04, 00:58:05,VALID,1000.45,VALID,0,VALID,89.9227,VALID,0,VALID,24.7551,VALID,219,VALID,0.551953,
2009-06-04, 00:59:05,VALID,1000.42,VALID,0,VALID,90.0448,VALID,0,VALID,24.7551,VALID,281,VALID,0.964844,
2009-06-04, 01:00:05,VALID,1000.39,VALID,0,VALID,89.8083,VALID,0,VALID,24.7356,VALID,51,VALID,0.720312,
2009-06-04, 01:01:05,VALID,1000.42,VALID,0,VALID,88.8774,VALID,0,VALID,24.716,VALID,317,VALID,0.634766,
2009-06-04, 01:02:05,VALID,1000.35,VALID,0,VALID,86.7793,VALID,0,VALID,24.757,VALID,302,VALID,0.646094,
2009-06-04, 01:03:05,VALID,1000.33,VALID,0,VALID,82.6059,VALID,0,VALID,24.9131,VALID,12,VALID,0.894531,
2009-06-04, 01:04:05,VALID,1000.36,VALID,0,VALID,86.3444,VALID,0,VALID,25.165,VALID,267,VALID,0.926562,
2009-06-04, 01:05:05,VALID,1000.35,VALID,0,VALID,85.5128,VALID,0,VALID,25.2431,VALID,283,VALID,0.984766,
2009-06-04, 01:06:05,VALID,1000.32,VALID,0,VALID,85.3373,VALID,0,VALID,25.3231,VALID,220,VALID,1.27969,
2009-06-04, 01:07:05,VALID,1000.33,VALID,0,VALID,82.7509,VALID,0,VALID,25.3212,VALID,210,VALID,0.989453,
2009-06-04, 01:08:05,VALID,1000.28,VALID,0,VALID,82.1481,VALID,0,VALID,25.4774,VALID,240,VALID,0.587891,
2009-06-04, 01:09:05,VALID,1000.3,VALID,0,VALID,81.8887,VALID,0,VALID,25.5555,VALID,236,VALID,0.86875,
2009-06-04, 01:10:05,VALID,1000.25,VALID,0,VALID,79.6075,VALID,0,VALID,25.6726,VALID,239,VALID,2.36562,
2009-06-04, 01:11:05,VALID,1000.2,VALID,0,VALID,72.9468,VALID,0,VALID,26.1412,VALID,210,VALID,3.48008,
2009-06-04, 01:12:05,VALID,1000.17,VALID,0,VALID,70.223,VALID,0,VALID,26.6685,VALID,192,VALID,4.35547,
2009-06-04, 01:13:04,VALID,1000.13,VALID,0,VALID,68.9336,VALID,0,VALID,27.0005,VALID,202,VALID,4.14375,
2009-06-04, 01:14:04,VALID,1000.13,VALID,0,VALID,67.8884,VALID,0,VALID,27.2761,VALID,196,VALID,5.13164,
2009-06-04, 01:15:04,VALID,1000.14,VALID,0,VALID,67.3314,VALID,0,VALID,27.3717,VALID,194,VALID,3.3832,
2009-06-04, 01:16:04,VALID,1000.08,VALID,0,VALID,67.0338,VALID,0,VALID,27.3912,VALID,199,VALID,3.01641,
2009-06-04, 01:17:04,VALID,1000.08,VALID,0,VALID,67.1178,VALID,0,VALID,27.5084,VALID,191,VALID,4.14141,
2009-06-04, 01:18:04,VALID,1000.1,VALID,0,VALID,67.0644,VALID,0,VALID,27.567,VALID,214,VALID,4.6418,
2009-06-04, 01:19:04,VALID,1000.08,VALID,0,VALID,66.5684,VALID,0,VALID,27.6061,VALID,195,VALID,4.17305,
2009-06-04, 01:20:04,VALID,1000.01,VALID,0,VALID,66.1793,VALID,0,VALID,27.6277,VALID,205,VALID,4.46016,
2009-06-04, 01:21:04,VALID,1000.06,VALID,0,VALID,66.721,VALID,0,VALID,27.6863,VALID,201,VALID,4.63281,
2009-06-04, 01:22:04,VALID,1000.04,VALID,0,VALID,67.0415,VALID,0,VALID,27.6473,VALID,193,VALID,3.24141,
2009-06-04, 01:23:04,VALID,1000.12,VALID,0,VALID,67.3619,VALID,0,VALID,27.6061,VALID,195,VALID,3.33594,
2009-06-04, 01:24:04,VALID,1000.06,VALID,0,VALID,66.8278,VALID,0,VALID,27.6473,VALID,202,VALID,4.13672,
2009-06-04, 01:25:04,VALID,1000.05,VALID,0,VALID,67.5908,VALID,0,VALID,27.6452,VALID,214,VALID,3.39961,
2009-06-04, 01:26:04,VALID,1000.09,VALID,0,VALID,67.7968,VALID,0,VALID,27.5865,VALID,199,VALID,3.22109,
2009-06-04, 01:27:04,VALID,1000.08,VALID,0,VALID,67.5145,VALID,0,VALID,27.5691,VALID,176,VALID,3.9457,
2009-06-04, 01:28:04,VALID,1000.08,VALID,0,VALID,68.0562,VALID,0,VALID,27.5279,VALID,205,VALID,3.44805,
2009-06-04, 01:29:04,VALID,1000.03,VALID,0,VALID,67.6671,VALID,0,VALID,27.5105,VALID,180,VALID,4.59062,
2009-06-04, 01:30:04,VALID,1000.04,VALID,0,VALID,67.9418,VALID,0,VALID,27.491,VALID,184,VALID,3.46484,
2009-06-04, 01:31:04,VALID,1000.1,VALID,0,VALID,67.8044,VALID,0,VALID,27.4889,VALID,201,VALID,3.86602,
2009-06-04, 01:32:04,VALID,1000.08,VALID,0,VALID,68.7734,VALID,0,VALID,27.5279,VALID,177,VALID,3.63984,
2009-06-04, 01:33:04,VALID,1000.06,VALID,0,VALID,68.8573,VALID,0,VALID,27.3717,VALID,164,VALID,1.67656,
2009-06-04, 01:34:04,VALID,1000.09,VALID,0,VALID,69.75,VALID,0,VALID,27.2329,VALID,167,VALID,1.73164,
2009-06-04, 01:35:04,VALID,1000.02,VALID,0,VALID,69.132,VALID,0,VALID,27.0961,VALID,203,VALID,1.63203,
2009-06-04, 01:36:04,VALID,1000.01,VALID,0,VALID,70.6884,VALID,0,VALID,27.1177,VALID,234,VALID,1.92695,
2009-06-04, 01:37:04,VALID,999.995,VALID,0,VALID,70.9555,VALID,0,VALID,27.1547,VALID,212,VALID,2.72227,
2009-06-04, 01:38:04,VALID,1000.01,VALID,0,VALID,70.5129,VALID,0,VALID,27.1743,VALID,190,VALID,2.1332,
2009-06-04, 01:39:04,VALID,1000.01,VALID,0,VALID,70.0247,VALID,0,VALID,27.2154,VALID,176,VALID,3.33594,
2009-06-04, 01:40:04,VALID,1000.01,VALID,0,VALID,70.3451,VALID,0,VALID,27.2565,VALID,209,VALID,2.33555,
2009-06-04, 01:41:04,VALID,1000.02,VALID,0,VALID,70.4367,VALID,0,VALID,27.2349,VALID,190,VALID,2.16992,
2009-06-04, 01:42:04,VALID,1000.01,VALID,0,VALID,71.1004,VALID,0,VALID,27.2175,VALID,181,VALID,2.31289,
2009-06-04, 01:43:04,VALID,1000.02,VALID,0,VALID,70.162,VALID,0,VALID,27.1979,VALID,186,VALID,2.86445,
2009-06-04, 01:44:04,VALID,1000,VALID,0,VALID,70.3375,VALID,0,VALID,27.237,VALID,182,VALID,2.90313,
2009-06-04, 01:45:04,VALID,999.989,VALID,0,VALID,71.0699,VALID,0,VALID,27.2349,VALID,205,VALID,1.94883,
2009-06-04, 01:46:04,VALID,999.944,VALID,0,VALID,70.8563,VALID,0,VALID,27.237,VALID,215,VALID,3.02617,
2009-06-04, 01:47:04,VALID,999.981,VALID,0,VALID,71.0852,VALID,0,VALID,27.2565,VALID,203,VALID,2.50625,
2009-06-04, 01:48:04,VALID,999.944,VALID,0,VALID,71.7871,VALID,0,VALID,27.2349,VALID,195,VALID,1.89297,
2009-06-04, 01:49:04,VALID,999.945,VALID,0,VALID,71.1157,VALID,0,VALID,27.237,VALID,176,VALID,3.34375,
2009-06-04, 01:50:04,VALID,999.933,VALID,0,VALID,71.1386,VALID,0,VALID,27.1784,VALID,186,VALID,2.56602,
2009-06-04, 01:51:04,VALID,999.961,VALID,0,VALID,71.459,VALID,0,VALID,27.0982,VALID,168,VALID,2.50234,
2009-06-04, 01:52:04,VALID,999.96,VALID,0,VALID,71.9015,VALID,0,VALID,27.0005,VALID,158,VALID,2.97617,
2009-06-04, 01:53:04,VALID,999.961,VALID,0,VALID,73.6182,VALID,0,VALID,26.9049,VALID,147,VALID,2.65156,
2009-06-04, 01:54:04,VALID,999.959,VALID,0,VALID,75.8308,VALID,0,VALID,26.6294,VALID,137,VALID,1.86367,
2009-06-04, 01:55:04,VALID,999.902,VALID,0,VALID,77.5551,VALID,0,VALID,26.3365,VALID,138,VALID,0.948438,
2009-06-04, 01:56:04,VALID,999.883,VALID,0,VALID,77.9137,VALID,0,VALID,26.1197,VALID,155,VALID,1.3375,
2009-06-04, 01:57:04,VALID,999.909,VALID,0,VALID,79.0734,VALID,0,VALID,25.944,VALID,190,VALID,1.72617,
2009-06-04, 01:58:04,VALID,999.946,VALID,0,VALID,78.6461,VALID,0,VALID,25.9069,VALID,174,VALID,2.22734,
2009-06-04, 01:59:04,VALID,999.915,VALID,0,VALID,79.9508,VALID,0,VALID,25.8659,VALID,118,VALID,1.75,
2009-06-04, 02:00:04,VALID,999.896,VALID,0,VALID,79.1115,VALID,0,VALID,25.7487,VALID,127,VALID,1.6,
2009-06-04, 02:01:04,VALID,999.929,VALID,0,VALID,81.1257,VALID,0,VALID,25.6531,VALID,115,VALID,0.993359,
2009-06-04, 02:02:04,VALID,999.928,VALID,0,VALID,83.0103,VALID,0,VALID,25.5145,VALID,99,VALID,1.35781,
2009-06-04, 02:03:04,VALID,999.91,VALID,0,VALID,84.292,VALID,0,VALID,25.3602,VALID,113,VALID,1.86641,
2009-06-04, 02:04:04,VALID,999.93,VALID,0,VALID,85.1084,VALID,0,VALID,25.1845,VALID,121,VALID,1.06992,
2009-06-04, 02:05:04,VALID,999.884,VALID,0,VALID,85.5357,VALID,0,VALID,25.0479,VALID,136,VALID,1.28828,
2009-06-04, 02:06:04,VALID,999.837,VALID,0,VALID,85.7951,VALID,0,VALID,24.9308,VALID,96,VALID,0.39375,
2009-06-04, 02:07:04,VALID,999.841,VALID,0,VALID,85.7417,VALID,0,VALID,24.8722,VALID,32,VALID,1.07813,
2009-06-04, 02:08:04,VALID,999.833,VALID,0,VALID,85.6196,VALID,0,VALID,24.7727,VALID,129,VALID,1.0875,
2009-06-04, 02:09:04,VALID,999.881,VALID,0,VALID,86.0392,VALID,0.112286,VALID,24.7337,VALID,167,VALID,1.72344,
2009-06-04, 02:10:04,VALID,999.842,VALID,0,VALID,86.436,VALID,0,VALID,24.6946,VALID,134,VALID,0.919922,
2009-06-04, 02:11:04,VALID,999.823,VALID,0,VALID,86.4131,VALID,0,VALID,24.6751,VALID,137,VALID,1.31797,
2009-06-04, 02:12:04,VALID,999.808,VALID,0,VALID,86.4512,VALID,0,VALID,24.6556,VALID,127,VALID,0.003125,
2009-06-04, 02:13:04,VALID,999.772,VALID,0,VALID,85.9553,VALID,0,VALID,24.6361,VALID,83,VALID,1.16758,
2009-06-04, 02:14:04,VALID,999.741,VALID,0,VALID,85.1313,VALID,0.112286,VALID,24.7551,VALID,187,VALID,1.58828,
2009-06-04, 02:15:04,VALID,999.75,VALID,0,VALID,82.6974,VALID,0,VALID,24.8527,VALID,144,VALID,2.15156,
2009-06-04, 02:16:04,VALID,999.772,VALID,0,VALID,81.3623,VALID,0,VALID,25.0674,VALID,127,VALID,2.29219,
2009-06-04, 02:17:04,VALID,999.751,VALID,0,VALID,80.7748,VALID,0,VALID,25.2997,VALID,140,VALID,1.79414,
2009-06-04, 02:18:04,VALID,999.724,VALID,0,VALID,80.2483,VALID,0,VALID,25.4559,VALID,145,VALID,1.75664,
2009-06-04, 02:19:04,VALID,999.75,VALID,0,VALID,80.4162,VALID,0,VALID,25.4949,VALID,144,VALID,1.45898,
2009-06-04, 02:20:04,VALID,999.716,VALID,0,VALID,80.729,VALID,0,VALID,25.4383,VALID,163,VALID,0.678516,
2009-06-04, 02:21:04,VALID,999.751,VALID,0,VALID,80.6069,VALID,0,VALID,25.3602,VALID,164,VALID,1.46563,
2009-06-04, 02:22:04,VALID,999.713,VALID,0,VALID,79.4243,VALID,0,VALID,25.3388,VALID,145,VALID,1.14023,
2009-06-04, 02:23:04,VALID,999.763,VALID,0,VALID,80.4543,VALID,0,VALID,25.3602,VALID,137,VALID,1.56211,
2009-06-04, 02:24:04,VALID,999.773,VALID,0,VALID,80.6832,VALID,0,VALID,25.3193,VALID,98,VALID,1.36953,
2009-06-04, 02:25:04,VALID,999.778,VALID,0,VALID,80.6909,VALID,0,VALID,25.3602,VALID,121,VALID,1.55781,
2009-06-04, 02:26:04,VALID,999.741,VALID,0,VALID,82.0947,VALID,0,VALID,25.2997,VALID,86,VALID,1.4125,
2009-06-04, 02:27:04,VALID,999.735,VALID,0,VALID,83.4528,VALID,0,VALID,25.1631,VALID,118,VALID,1.32539,
2009-06-04, 02:28:04,VALID,999.752,VALID,0,VALID,83.1629,VALID,0,VALID,25.0284,VALID,109,VALID,1.62969,
2009-06-04, 02:29:04,VALID,999.757,VALID,0,VALID,83.4757,VALID,0,VALID,24.9093,VALID,152,VALID,1.64453,
2009-06-04, 02:30:04,VALID,999.758,VALID,0,VALID,82.1786,VALID,0,VALID,24.9874,VALID,189,VALID,1.04727,
2009-06-04, 02:31:04,VALID,999.741,VALID,0,VALID,81.8582,VALID,0,VALID,25.1631,VALID,157,VALID,0.989062,
2009-06-04, 02:32:04,VALID,999.703,VALID,0,VALID,81.759,VALID,0,VALID,25.2626,VALID,155,VALID,0.178516,
2009-06-04, 02:33:04,VALID,999.725,VALID,0,VALID,80.5764,VALID,0,VALID,25.2412,VALID,142,VALID,0.713672,
2009-06-04, 02:34:04,VALID,999.719,VALID,0,VALID,80.6832,VALID,0,VALID,25.3602,VALID,121,VALID,0.617969,
2009-06-04, 02:35:04,VALID,999.705,VALID,0,VALID,82.1023,VALID,0,VALID,25.3583,VALID,89,VALID,0.898438,
2009-06-04, 02:36:04,VALID,999.648,VALID,0,VALID,82.6974,VALID,0,VALID,25.2431,VALID,53,VALID,0.798437,
2009-06-04, 02:37:04,VALID,999.664,VALID,0,VALID,82.1557,VALID,0,VALID,25.1064,VALID,73,VALID,0.5875,
2009-06-04, 02:38:04,VALID,999.621,VALID,0,VALID,81.1181,VALID,0,VALID,25.0284,VALID,88,VALID,0.762109,
2009-06-04, 02:39:04,VALID,999.635,VALID,0,VALID,81.2402,VALID,0,VALID,25.0069,VALID,161,VALID,1.40352,
2009-06-04, 02:40:04,VALID,999.654,VALID,0,VALID,82.1863,VALID,0,VALID,25.0869,VALID,88,VALID,1.93789,
2009-06-04, 02:41:04,VALID,999.66,VALID,0,VALID,83.4604,VALID,0,VALID,24.9893,VALID,101,VALID,1.36563,
2009-06-04, 02:42:04,VALID,999.646,VALID,0,VALID,81.614,VALID,0,VALID,24.8313,VALID,137,VALID,1.34648,
2009-06-04, 02:43:04,VALID,999.645,VALID,0,VALID,82.6212,VALID,0,VALID,24.9874,VALID,126,VALID,0.898828,
2009-06-04, 02:44:04,VALID,999.633,VALID,0,VALID,83.201,VALID,0,VALID,25.0088,VALID,103,VALID,0.764063,
2009-06-04, 02:45:04,VALID,999.654,VALID,0,VALID,82.8119,VALID,0,VALID,24.9503,VALID,161,VALID,0.399609,
2009-06-04, 02:46:04,VALID,999.637,VALID,0,VALID,82.6822,VALID,0.112286,VALID,24.9093,VALID,200,VALID,0.267969,
2009-06-04, 02:47:04,VALID,999.606,VALID,0,VALID,82.6746,VALID,0,VALID,24.8917,VALID,289,VALID,0.511328,
2009-06-04, 02:48:04,VALID,999.604,VALID,0,VALID,81.9421,VALID,0,VALID,24.8917,VALID,264,VALID,0.250391,
2009-06-04, 02:49:04,VALID,999.637,VALID,0,VALID,82.644,VALID,0,VALID,24.9308,VALID,228,VALID,0.155469,
2009-06-04, 02:50:04,VALID,999.607,VALID,0,VALID,82.0795,VALID,0.112286,VALID,24.9093,VALID,99,VALID,0.634375,
2009-06-04, 02:51:04,VALID,999.575,VALID,0,VALID,81.8582,VALID,0.112286,VALID,24.9289,VALID,151,VALID,1.62695,
2009-06-04, 02:52:04,VALID,999.601,VALID,0,VALID,80.0195,VALID,0.112286,VALID,25.1455,VALID,167,VALID,1.73516,
2009-06-04, 02:53:04,VALID,999.604,VALID,0,VALID,80.1873,VALID,0,VALID,25.3193,VALID,109,VALID,1.46953,
2009-06-04, 02:54:04,VALID,999.562,VALID,0,VALID,79.5159,VALID,0.112286,VALID,25.3602,VALID,91,VALID,1.13945,
2009-06-04, 02:55:04,VALID,999.567,VALID,0,VALID,80.8282,VALID,0,VALID,25.2997,VALID,94,VALID,1.64336,
2009-06-04, 02:56:04,VALID,999.538,VALID,0,VALID,82.0489,VALID,0,VALID,25.204,VALID,99,VALID,1.35664,
2009-06-04, 02:57:04,VALID,999.526,VALID,0,VALID,83.1095,VALID,0.112286,VALID,25.0265,VALID,93,VALID,1.3375,
2009-06-04, 02:58:04,VALID,999.556,VALID,0,VALID,84.0937,VALID,0,VALID,24.9112,VALID,101,VALID,1.59922,
2009-06-04, 02:59:04,VALID,999.552,VALID,0,VALID,85.1313,VALID,0,VALID,24.7532,VALID,94,VALID,1.15273,
2009-06-04, 03:00:04,VALID,999.527,VALID,0,VALID,85.1084,VALID,0,VALID,24.6361,VALID,67,VALID,1.66406,
2009-06-04, 03:01:04,VALID,999.523,VALID,0,VALID,84.7422,VALID,0,VALID,24.5794,VALID,60,VALID,1.23867,
2009-06-04, 03:02:04,VALID,999.525,VALID,0,VALID,84.6735,VALID,0,VALID,24.519,VALID,72,VALID,0.725781,
2009-06-04, 03:03:04,VALID,999.536,VALID,0,VALID,85.1694,VALID,0,VALID,24.5013,VALID,66,VALID,0.194922,
2009-06-04, 03:04:04,VALID,999.504,VALID,0,VALID,85.5662,VALID,0,VALID,24.4604,VALID,36,VALID,0.604297,
2009-06-04, 03:05:04,VALID,999.491,VALID,0,VALID,86.0087,VALID,0,VALID,24.4019,VALID,345,VALID,0.569531,
2009-06-04, 03:06:04,VALID,999.492,VALID,0,VALID,86.9166,VALID,0,VALID,24.3842,VALID,345,VALID,0.938281,
2009-06-04, 03:07:04,VALID,999.518,VALID,0,VALID,86.7259,VALID,0,VALID,24.3043,VALID,37,VALID,0.808203,
2009-06-04, 03:08:04,VALID,999.47,VALID,0,VALID,86.6496,VALID,0,VALID,24.2866,VALID,31,VALID,0.462891,
2009-06-04, 03:09:04,VALID,999.505,VALID,0,VALID,85.9858,VALID,0,VALID,24.2458,VALID,98,VALID,0.521484,
2009-06-04, 03:10:04,VALID,999.467,VALID,0,VALID,85.9248,VALID,0,VALID,24.2263,VALID,90,VALID,0.329688,
2009-06-04, 03:11:04,VALID,999.456,VALID,0,VALID,86.3215,VALID,0,VALID,24.2476,VALID,327,VALID,0.823438,
2009-06-04, 03:12:04,VALID,999.439,VALID,0,VALID,86.3368,VALID,0,VALID,24.2476,VALID,290,VALID,0.283984,
2009-06-04, 03:13:04,VALID,999.441,VALID,0,VALID,86.3063,VALID,0,VALID,24.2086,VALID,159,VALID,0.104687,
2009-06-04, 03:14:04,VALID,999.432,VALID,0,VALID,85.9553,VALID,0,VALID,24.1872,VALID,159,VALID,0.271484,
2009-06-04, 03:15:04,VALID,999.444,VALID,0,VALID,85.7569,VALID,0,VALID,24.2067,VALID,159,VALID,0.207422,
2009-06-04, 03:16:04,VALID,999.457,VALID,0,VALID,85.1771,VALID,0,VALID,24.2281,VALID,159,VALID,0.534766,
2009-06-04, 03:17:04,VALID,999.476,VALID,0,VALID,85.1847,VALID,0,VALID,24.2067,VALID,134,VALID,0.6625,
2009-06-04, 03:18:04,VALID,999.5,VALID,0,VALID,85.2763,VALID,0,VALID,24.2653,VALID,134,VALID,0.142188,
2009-06-04, 03:19:04,VALID,999.529,VALID,0,VALID,85.8485,VALID,0,VALID,24.2866,VALID,91,VALID,0.761328,
2009-06-04, 03:20:04,VALID,999.583,VALID,0,VALID,85.8256,VALID,0,VALID,24.2458,VALID,107,VALID,1.67344,
2009-06-04, 03:21:04,VALID,999.582,VALID,0,VALID,86.7411,VALID,0,VALID,24.2263,VALID,104,VALID,1.68242,
2009-06-04, 03:22:04,VALID,999.601,VALID,0,VALID,87.4583,VALID,0,VALID,24.2067,VALID,99,VALID,1.22617,
2009-06-04, 03:23:04,VALID,999.608,VALID,0,VALID,87.878,VALID,0,VALID,24.1677,VALID,89,VALID,1.15586,
2009-06-04, 03:24:04,VALID,999.63,VALID,0,VALID,88.1603,VALID,0,VALID,24.15,VALID,91,VALID,1.26211,
2009-06-04, 03:25:04,VALID,999.612,VALID,0,VALID,88.2594,VALID,0,VALID,24.0701,VALID,96,VALID,1.11914,
2009-06-04, 03:26:04,VALID,999.614,VALID,0,VALID,88.2823,VALID,0,VALID,24.0506,VALID,90,VALID,1.32852,
2009-06-04, 03:27:04,VALID,999.597,VALID,0,VALID,88.7554,VALID,0.112286,VALID,24.0311,VALID,92,VALID,1.54023,
2009-06-04, 03:28:04,VALID,999.57,VALID,0,VALID,88.8927,VALID,0,VALID,24.0525,VALID,89,VALID,1.29727,
2009-06-04, 03:29:04,VALID,999.593,VALID,0,VALID,88.557,VALID,0,VALID,24.0116,VALID,72,VALID,1.24961,
2009-06-04, 03:30:04,VALID,999.556,VALID,0,VALID,88.3663,VALID,0,VALID,23.9921,VALID,61,VALID,1.51563,
2009-06-04, 03:31:04,VALID,999.566,VALID,0,VALID,88.206,VALID,0,VALID,24.0329,VALID,83,VALID,1.54648,
2009-06-04, 03:32:04,VALID,999.571,VALID,0,VALID,88.1679,VALID,0,VALID,24.0134,VALID,69,VALID,1.4082,
2009-06-04, 03:33:04,VALID,999.588,VALID,0,VALID,87.9771,VALID,0,VALID,24.0134,VALID,75,VALID,1.09766,
2009-06-04, 03:34:04,VALID,999.604,VALID,0,VALID,87.878,VALID,0,VALID,23.9921,VALID,74,VALID,0.812109,
2009-06-04, 03:35:04,VALID,999.611,VALID,0,VALID,87.6338,VALID,0,VALID,23.9531,VALID,81,VALID,0.854688,
2009-06-04, 03:36:04,VALID,999.61,VALID,0,VALID,87.0921,VALID,0,VALID,23.9726,VALID,72,VALID,0.941016,
2009-06-04, 03:37:04,VALID,999.618,VALID,0,VALID,86.8785,VALID,0,VALID,23.9726,VALID,66,VALID,0.809375,
2009-06-04, 03:38:04,VALID,999.595,VALID,0,VALID,86.9319,VALID,0,VALID,23.9921,VALID,63,VALID,0.619922,
2009-06-04, 03:39:04,VALID,999.635,VALID,0,VALID,86.8403,VALID,0,VALID,24.0329,VALID,60,VALID,0.354297,
2009-06-04, 03:40:04,VALID,999.619,VALID,0,VALID,86.9929,VALID,0,VALID,24.0116,VALID,60,VALID,0.000390625,
2009-06-04, 03:41:04,VALID,999.625,VALID,0,VALID,87.26,VALID,0,VALID,24.0134,VALID,60,VALID,0.204297,
2009-06-04, 03:42:04,VALID,999.62,VALID,0,VALID,86.8861,VALID,0,VALID,24.0134,VALID,60,VALID,0.161719,
2009-06-04, 03:43:04,VALID,999.636,VALID,0,VALID,86.9548,VALID,0,VALID,23.9939,VALID,60,VALID,0,
2009-06-04, 03:44:04,VALID,999.62,VALID,0,VALID,86.8556,VALID,0,VALID,23.9921,VALID,60,VALID,0.319922,
2009-06-04, 03:45:04,VALID,999.644,VALID,0,VALID,86.7869,VALID,0,VALID,24.0311,VALID,60,VALID,0.502344,
2009-06-04, 03:46:04,VALID,999.64,VALID,0,VALID,86.9777,VALID,0,VALID,24.0915,VALID,60,VALID,0.326953,